| time (UTC) | temp F | wind direction | speed MPH | gust MPH | rain 1hr in | rain 24hr in | rain mn in | humidity % | barometer mb |
| 20260506154616 | 59 | 203 | 2.0 | 4.0 | 0.00 | 0.01 | 0.00 | 76 | 1020.6 |
| 20260506153643 | 59 | 219 | 2.0 | 5.0 | 0.00 | 0.01 | 0.00 | 75 | 1020.6 |
| 20260506152629 | 58 | 172 | 1.0 | 2.0 | 0.00 | 0.01 | 0.00 | 76 | 1020.5 |
| 20260506151650 | 58 | 172 | 1.0 | 4.0 | 0.00 | 0.01 | 0.00 | 75 | 1020.5 |
| 20260506150614 | 58 | 22 | 1.0 | 2.0 | 0.00 | 0.01 | 0.00 | 77 | 1020.5 |
| 20260506145619 | 57 | 272 | 1.0 | 1.0 | 0.00 | 0.01 | 0.00 | 78 | 1020.5 |
| 20260506144622 | 57 | 272 | 1.0 | 2.0 | 0.00 | 0.01 | 0.00 | 80 | 1020.5 |
| 20260506143627 | 56 | 276 | 0.0 | 0.0 | 0.00 | 0.01 | 0.00 | 82 | 1020.5 |
| 20260506142631 | 54 | 276 | 0.0 | 0.0 | 0.00 | 0.01 | 0.00 | 82 | 1020.3 |
| 20260506141617 | 53 | 277 | 0.0 | 0.0 | 0.00 | 0.01 | 0.00 | 81 | 1020.3 |
| 20260506140622 | 53 | 277 | 0.0 | 0.0 | 0.00 | 0.01 | 0.00 | 81 | 1020.0 |
| 20260506135643 | 53 | 277 | 0.0 | 0.0 | 0.00 | 0.01 | 0.00 | 81 | 1019.9 |
| 20260506134624 | 54 | 277 | 0.0 | 1.0 | 0.00 | 0.01 | 0.00 | 80 | 1019.9 |
| 20260506133629 | 54 | 277 | 1.0 | 2.0 | 0.00 | 0.01 | 0.00 | 80 | 1019.9 |
| 20260506132635 | 54 | 277 | 0.0 | 2.0 | 0.00 | 0.01 | 0.00 | 80 | 1019.8 |
| 20260506131617 | 54 | 277 | 0.0 | 0.0 | 0.00 | 0.01 | 0.00 | 80 | 1019.8 |
| 20260506130622 | 54 | 277 | 0.0 | 3.0 | 0.00 | 0.01 | 0.00 | 80 | 1019.5 |
| 20260506125619 | 54 | 277 | 1.0 | 2.0 | 0.00 | 0.01 | 0.00 | 79 | 1019.5 |
| 20260506124646 | 54 | 277 | 0.0 | 1.0 | 0.00 | 0.01 | 0.00 | 79 | 1019.5 |
| 20260506123630 | 54 | 277 | 1.0 | 4.0 | 0.00 | 0.01 | 0.00 | 79 | 1019.5 |
| 20260506122633 | 54 | 267 | 1.0 | 4.0 | 0.00 | 0.01 | 0.00 | 79 | 1019.4 |
| 20260506121635 | 54 | 281 | 1.0 | 3.0 | 0.00 | 0.01 | 0.00 | 79 | 1019.4 |
| 20260506120622 | 54 | 290 | 0.0 | 2.0 | 0.00 | 0.01 | 0.00 | 79 | 1019.5 |
| 20260506115618 | 54 | 285 | 0.0 | 3.0 | 0.00 | 0.01 | 0.00 | 80 | 1019.4 |
| 20260506114641 | 54 | 296 | 1.0 | 2.0 | 0.00 | 0.01 | 0.00 | 80 | 1019.4 |
| 20260506113623 | 54 | 277 | 1.0 | 3.0 | 0.00 | 0.01 | 0.00 | 80 | 1019.2 |
| 20260506112625 | 54 | 263 | 1.0 | 3.0 | 0.00 | 0.01 | 0.00 | 80 | 1019.0 |
| 20260506111634 | 54 | 261 | 2.0 | 4.0 | 0.00 | 0.01 | 0.00 | 80 | 1019.0 |
| 20260506110657 | 54 | 274 | 1.0 | 4.0 | 0.00 | 0.01 | 0.00 | 80 | 1019.0 |
| 20260506105634 | 54 | 290 | 1.0 | 4.0 | 0.00 | 0.01 | 0.00 | 80 | 1019.0 |
| 20260506104616 | 54 | 277 | 2.0 | 3.0 | 0.00 | 0.01 | 0.00 | 80 | 1019.0 |
| 20260506103623 | 54 | 288 | 0.0 | 4.0 | 0.00 | 0.01 | 0.00 | 80 | 1019.0 |
| 20260506102629 | 54 | 339 | 0.0 | 3.0 | 0.00 | 0.01 | 0.00 | 80 | 1018.9 |
| 20260506101614 | 54 | 269 | 2.0 | 3.0 | 0.00 | 0.01 | 0.00 | 80 | 1018.9 |
| 20260506100639 | 54 | 308 | 1.0 | 4.0 | 0.00 | 0.01 | 0.00 | 81 | 1018.9 |
| 20260506095623 | 54 | 287 | 0.0 | 2.0 | 0.00 | 0.02 | 0.00 | 81 | 1018.9 |
| 20260506094630 | 53 | 327 | 1.0 | 3.0 | 0.00 | 0.02 | 0.00 | 81 | 1018.9 |
| 20260506093632 | 53 | 271 | 2.0 | 3.0 | 0.00 | 0.02 | 0.00 | 81 | 1018.9 |
| 20260506092618 | 53 | 269 | 1.0 | 3.0 | 0.00 | 0.02 | 0.00 | 81 | 1018.9 |
| 20260506091641 | 53 | 318 | 0.0 | 3.0 | 0.00 | 0.02 | 0.00 | 81 | 1018.9 |
| 20260506090628 | 54 | 269 | 1.0 | 3.0 | 0.00 | 0.02 | 0.00 | 81 | 1018.9 |
| 20260506085632 | 54 | 275 | 1.0 | 2.0 | 0.00 | 0.06 | 0.00 | 81 | 1018.9 |
| 20260506084639 | 54 | 275 | 0.0 | 3.0 | 0.00 | 0.06 | 0.00 | 81 | 1018.9 |
| 20260506083621 | 54 | 263 | 2.0 | 3.0 | 0.00 | 0.06 | 0.00 | 81 | 1018.9 |
| 20260506082643 | 54 | 263 | 2.0 | 4.0 | 0.00 | 0.06 | 0.00 | 81 | 1019.0 |
| 20260506081631 | 54 | 306 | 1.0 | 4.0 | 0.00 | 0.06 | 0.00 | 81 | 1019.0 |
| 20260506080634 | 54 | 310 | 0.0 | 3.0 | 0.00 | 0.06 | 0.00 | 81 | 1019.0 |
| 20260506072642 | 53 | 276 | 2.0 | 5.0 | 0.00 | 0.09 | 0.06 | 81 | 1018.6 |
| 20260506071624 | 53 | 265 | 3.0 | 6.0 | 0.00 | 0.09 | 0.06 | 82 | 1018.6 |
| 20260506070647 | 53 | 257 | 4.0 | 6.0 | 0.00 | 0.09 | 0.06 | 82 | 1018.5 |
| 20260506061621 | 53 | 263 | 3.0 | 4.0 | 0.00 | 0.10 | 0.06 | 80 | 1018.3 |
| 20260506060630 | 54 | 292 | 2.0 | 3.0 | 0.00 | 0.10 | 0.06 | 80 | 1018.4 |
| 20260506050626 | 55 | 242 | 4.0 | 8.0 | 0.00 | 0.11 | 0.06 | 78 | 1017.9 |
| 20260506044628 | 55 | 293 | 3.0 | 7.0 | 0.00 | 0.11 | 0.06 | 78 | 1017.8 |
| 20260506043615 | 55 | 269 | 4.0 | 8.0 | 0.00 | 0.11 | 0.06 | 78 | 1017.5 |
| 20260506042620 | 55 | 229 | 3.0 | 7.0 | 0.00 | 0.11 | 0.06 | 78 | 1017.4 |
| 20260506041622 | 56 | 228 | 3.0 | 4.0 | 0.00 | 0.11 | 0.06 | 78 | 1017.4 |
| 20260506040629 | 56 | 232 | 3.0 | 5.0 | 0.00 | 0.11 | 0.06 | 78 | 1017.3 |
| 20260506035647 | 56 | 220 | 4.0 | 7.0 | 0.00 | 0.11 | 0.06 | 78 | 1017.1 |
| 20260506034628 | 56 | 222 | 3.0 | 7.0 | 0.00 | 0.11 | 0.06 | 77 | 1017.1 |
| 20260506033631 | 56 | 226 | 3.0 | 8.0 | 0.00 | 0.11 | 0.06 | 77 | 1016.8 |
| 20260506032654 | 56 | 219 | 3.0 | 6.0 | 0.00 | 0.11 | 0.06 | 77 | 1016.7 |
| 20260506031619 | 57 | 221 | 5.0 | 10.0 | 0.00 | 0.11 | 0.06 | 76 | 1016.7 |
| 20260506030642 | 57 | 226 | 3.0 | 9.0 | 0.00 | 0.11 | 0.06 | 76 | 1016.3 |
| 20260506025617 | 57 | 229 | 4.0 | 7.0 | 0.00 | 0.11 | 0.06 | 75 | 1016.4 |
| 20260506024623 | 58 | 264 | 4.0 | 7.0 | 0.00 | 0.11 | 0.06 | 74 | 1016.4 |
| 20260506023630 | 58 | 236 | 5.0 | 9.0 | 0.00 | 0.11 | 0.06 | 74 | 1016.3 |
| 20260506022617 | 58 | 238 | 4.0 | 10.0 | 0.00 | 0.11 | 0.06 | 74 | 1016.2 |
| 20260506021619 | 59 | 216 | 7.0 | 11.0 | 0.00 | 0.11 | 0.06 | 73 | 1016.2 |
| 20260506020621 | 59 | 234 | 5.0 | 10.0 | 0.00 | 0.11 | 0.06 | 73 | 1016.1 |
| 20260506015620 | 59 | 202 | 6.0 | 9.0 | 0.00 | 0.11 | 0.06 | 73 | 1015.9 |
| 20260506014627 | 60 | 211 | 5.0 | 10.0 | 0.00 | 0.11 | 0.06 | 73 | 1015.9 |
| 20260506013632 | 60 | 234 | 4.0 | 10.0 | 0.00 | 0.11 | 0.06 | 72 | 1015.9 |
| 20260506012654 | 60 | 221 | 5.0 | 8.0 | 0.00 | 0.11 | 0.06 | 72 | 1016.0 |
| 20260506011656 | 60 | 252 | 6.0 | 10.0 | 0.00 | 0.11 | 0.06 | 72 | 1016.0 |
| 20260506010657 | 61 | 227 | 6.0 | 10.0 | 0.00 | 0.11 | 0.06 | 72 | 1015.9 |
| 20260506005619 | 61 | 222 | 5.0 | 10.0 | 0.00 | 0.11 | 0.06 | 71 | 1015.8 |
| 20260506004621 | 61 | 277 | 5.0 | 10.0 | 0.00 | 0.11 | 0.06 | 72 | 1015.8 |
| 20260506003623 | 61 | 217 | 7.0 | 9.0 | 0.00 | 0.11 | 0.06 | 72 | 1015.8 |
| 20260506002626 | 61 | 225 | 5.0 | 8.0 | 0.00 | 0.11 | 0.06 | 71 | 1015.7 |
| 20260506001614 | 61 | 204 | 5.0 | 8.0 | 0.00 | 0.11 | 0.06 | 71 | 1015.7 |
| 20260506000621 | 61 | 221 | 4.0 | 9.0 | 0.00 | 0.11 | 0.06 | 70 | 1015.6 |
| 20260505235617 | 61 | 257 | 3.0 | 8.0 | 0.00 | 0.11 | 0.06 | 71 | 1015.7 |
| 20260505234619 | 61 | 292 | 5.0 | 9.0 | 0.00 | 0.11 | 0.06 | 72 | 1015.7 |
| 20260505233628 | 61 | 242 | 5.0 | 9.0 | 0.00 | 0.11 | 0.06 | 71 | 1015.7 |
| 20260505232633 | 61 | 261 | 3.0 | 9.0 | 0.00 | 0.11 | 0.06 | 72 | 1015.7 |
| 20260505231617 | 61 | 196 | 4.0 | 10.0 | 0.00 | 0.11 | 0.06 | 72 | 1015.7 |
| 20260505230639 | 62 | 234 | 4.0 | 8.0 | 0.00 | 0.11 | 0.06 | 71 | 1015.8 |
| 20260505225633 | 62 | 248 | 5.0 | 8.0 | 0.00 | 0.11 | 0.06 | 70 | 1015.6 |
| 20260505224623 | 63 | 226 | 4.0 | 8.0 | 0.00 | 0.11 | 0.06 | 69 | 1015.6 |
| 20260505223630 | 64 | 201 | 3.0 | 9.0 | 0.00 | 0.11 | 0.06 | 68 | 1015.6 |
| 20260505222635 | 64 | 250 | 4.0 | 11.0 | 0.00 | 0.11 | 0.06 | 69 | 1015.7 |
| 20260505221617 | 64 | 208 | 6.0 | 9.0 | 0.00 | 0.11 | 0.06 | 68 | 1015.7 |
| 20260505220646 | 63 | 262 | 5.0 | 8.0 | 0.00 | 0.11 | 0.06 | 71 | 1015.8 |
| 20260505215642 | 62 | 171 | 4.0 | 7.0 | 0.00 | 0.11 | 0.06 | 70 | 1015.8 |
| 20260505214623 | 62 | 271 | 3.0 | 8.0 | 0.00 | 0.11 | 0.06 | 71 | 1015.8 |
| 20260505213629 | 62 | 246 | 4.0 | 7.0 | 0.00 | 0.11 | 0.06 | 71 | 1015.9 |
| 20260505212631 | 61 | 244 | 4.0 | 8.0 | 0.00 | 0.11 | 0.06 | 72 | 1015.9 |
| 20260505211617 | 61 | 271 | 4.0 | 7.0 | 0.00 | 0.11 | 0.06 | 71 | 1015.9 |
| 20260505210619 | 61 | 233 | 5.0 | 7.0 | 0.00 | 0.11 | 0.06 | 73 | 1015.9 |
| 20260505205619 | 61 | 232 | 3.0 | 7.0 | 0.00 | 0.11 | 0.06 | 74 | 1016.0 |
| 20260505204621 | 60 | 262 | 3.0 | 6.0 | 0.00 | 0.11 | 0.06 | 74 | 1016.0 |
| 20260505203628 | 60 | 273 | 4.0 | 6.0 | 0.00 | 0.11 | 0.06 | 74 | 1015.9 |
| 20260505202630 | 60 | 233 | 3.0 | 6.0 | 0.00 | 0.11 | 0.06 | 74 | 1016.0 |
| 20260505201652 | 60 | 261 | 4.0 | 7.0 | 0.00 | 0.11 | 0.06 | 75 | 1016.0 |
| 20260505200637 | 59 | 237 | 5.0 | 7.0 | 0.00 | 0.11 | 0.06 | 76 | 1016.1 |
| 20260505195618 | 59 | 265 | 3.0 | 9.0 | 0.00 | 0.11 | 0.06 | 76 | 1016.1 |
| 20260505194622 | 59 | 239 | 5.0 | 11.0 | 0.00 | 0.11 | 0.06 | 75 | 1016.1 |
| 20260505193624 | 60 | 205 | 5.0 | 10.0 | 0.00 | 0.11 | 0.06 | 75 | 1016.1 |
| 20260505192629 | 60 | 262 | 4.0 | 7.0 | 0.00 | 0.11 | 0.06 | 74 | 1016.1 |
| 20260505191614 | 60 | 239 | 4.0 | 7.0 | 0.00 | 0.11 | 0.06 | 76 | 1016.1 |
| 20260505190620 | 59 | 242 | 3.0 | 9.0 | 0.00 | 0.11 | 0.06 | 76 | 1016.0 |
| 20260505185620 | 59 | 221 | 4.0 | 7.0 | 0.00 | 0.11 | 0.06 | 77 | 1015.9 |
| 20260505184642 | 59 | 260 | 4.0 | 7.0 | 0.00 | 0.11 | 0.06 | 77 | 1015.9 |
| 20260505183627 | 59 | 241 | 4.0 | 7.0 | 0.00 | 0.11 | 0.06 | 78 | 1015.8 |
| 20260505182653 | 58 | 316 | 2.0 | 6.0 | 0.00 | 0.11 | 0.06 | 78 | 1015.8 |
| 20260505181634 | 58 | 256 | 3.0 | 8.0 | 0.00 | 0.11 | 0.06 | 79 | 1015.8 |
| 20260505180616 | 58 | 267 | 4.0 | 7.0 | 0.00 | 0.11 | 0.06 | 80 | 1015.8 |
| 20260505175636 | 58 | 293 | 3.0 | 9.0 | 0.00 | 0.11 | 0.06 | 82 | 1015.8 |
| 20260505174622 | 58 | 229 | 3.0 | 10.0 | 0.00 | 0.11 | 0.06 | 84 | 1015.8 |
| 20260505173644 | 57 | 259 | 3.0 | 6.0 | 0.00 | 0.11 | 0.06 | 85 | 1015.5 |
| 20260505172626 | 57 | 281 | 3.0 | 6.0 | 0.00 | 0.11 | 0.06 | 86 | 1015.6 |
| 20260505171631 | 56 | 213 | 3.0 | 6.0 | 0.00 | 0.11 | 0.06 | 86 | 1015.6 |
| 20260505170633 | 56 | 227 | 0.0 | 3.0 | 0.00 | 0.11 | 0.06 | 86 | 1015.7 |
| 20260505165622 | 56 | 267 | 1.0 | 3.0 | 0.00 | 0.11 | 0.06 | 86 | 1015.6 |
| 20260505164624 | 55 | 229 | 2.0 | 4.0 | 0.00 | 0.11 | 0.06 | 86 | 1015.6 |
| 20260505163630 | 55 | 244 | 2.0 | 4.0 | 0.00 | 0.11 | 0.06 | 87 | 1015.4 |
| 20260505162632 | 54 | 246 | 2.0 | 4.0 | 0.00 | 0.11 | 0.06 | 87 | 1015.6 |
| 20260505161622 | 54 | 232 | 2.0 | 5.0 | 0.00 | 0.11 | 0.06 | 86 | 1015.6 |
| 20260505160645 | 54 | 254 | 3.0 | 6.0 | 0.00 | 0.11 | 0.06 | 86 | 1015.3 |